Location: Pine Mountain State Resort Park
(36.7364°N, 83.7376°W)
Time: 10:46:54
(UTC-05:00)

Tiangong 2 - Visible Passes

Search period start: 20 February 2018 00:00
Search period end: 02 March 2018 00:00
Orbit: 384 x 388 km, 42.8° (Epoch: 20 February)

Date Brightness Start Highest point End Pass type
(mag) Time Alt. Az. Time Alt. Az. Time Alt. Az.
20 Feb 1.5 19:58:56 10° WNW 20:01:40 63° WNW 20:01:40 63° WNW visible
21 Feb 1.3 19:00:00 10° WNW 19:03:08 56° NNE 19:05:47 13° E visible
21 Feb 4.1 20:37:08 10° W 20:38:04 16° WSW 20:38:04 16° WSW visible
22 Feb 2.0 19:37:51 10° WNW 19:40:53 44° SSW 19:42:17 25° SSE visible
23 Feb 4.0 20:17:01 10° WSW 20:18:20 12° SW 20:18:56 12° SSW visible
24 Feb 3.3 19:16:58 10° W 19:19:32 23° SW 19:22:06 10° SSE visible
26 Feb 4.2 18:56:51 10° WSW 18:58:04 12° SW 18:59:17 10° SSW visible
